CANX-4

Last updated on Sun Jun 21 2026 00:03:50 GMT+0000 (Coordinated Universal Time)

1 40055U 14034C 26171.39431421 .00000652 00000+0 90911-4 0 9996 2 40055 98.3118 46.8251 0012926 7.0319 353.1072 14.81269424645009
UTC large
Height (km)
Speed (km/s)
/
Latitude / Longitude
Inclination (degrees)
Orbital Period (minutes)
Azimuth
Elevation
Range (km)
Doppler Factor

Next 0 passes for location: London (51.5072 / 0.1276)

No passes found over London.
CANX-4